Location: ?????
(24.0934°N, 32.9070°E)
Time: 02:38:50
(UTC+00:00)

Daily predictions for brighter satellites

Satellite Brightness Start Highest point End
(mag) Time Altitude Azimuth Time Altitude Azimuth Time Altitude Azimuth
Cosmos 2369 Rocket 3.6 01:35:31 33° ENE 01:35:31 33° ENE 01:39:20 10° NE
Hubble Space Telescope 3.0 01:57:30 23° E 01:57:30 23° E 01:59:11 10° E
Cosmos 841 Rocket 3.8 02:03:43 62° SE 02:03:43 62° SE 02:08:10 10° SSE
Cosmos 2034 Rocket 4.1 02:07:18 28° N 02:10:47 75° E 02:17:06 10° S
YAOGAN 6 4.2 02:14:34 29° ENE 02:15:29 34° E 02:18:47 10° SSE
Cosmos 2098 Rocket 4.5 02:16:23 10° SSE 02:19:20 29° E 02:22:50 10° NNE
Cosmos 2082 Rocket 2.2 02:20:36 60° SW 02:20:36 60° SW 02:25:37 10° S
Envisat 3.7 02:19:47 10° NNE 02:24:43 53° E 02:29:39 10° S
Tsikada Rocket 3.9 02:22:40 10° SSW 02:28:44 62° W 02:34:54 10° N
BREEZE-M R/B 3.6 02:30:22 35° SSE 02:30:22 35° SSE 02:32:55 10° SE
NATO 3D Rocket 4.0 02:32:08 45° WSW 02:33:54 71° S 02:41:20 10° E
BREEZE-M DEB 4.0 02:39:18 24° NNE 02:39:18 24° NNE 02:41:01 10° NE
Cosmos 1933 3.1 02:39:15 57° N 02:40:02 87° W 02:44:02 10° S
OAO 3 Rocket 3.6 02:46:22 37° NNW 02:48:01 54° NNE 02:52:52 10° E
ATLAS 5 CENTAUR R/B 2.6 02:45:01 10° S 02:48:30 39° ESE 02:52:03 10° NE
Cosmos 1570 Rocket 3.9 02:48:51 22° NNW 02:52:15 74° WSW 02:57:30 10° S
IUS-1 SRM-2 2.7 02:52:24 44° WNW 02:53:30 77° N 03:04:20 10° E
Chandra Rocket (1) 1.5 02:53:19 51° WSW 02:53:46 59° SSW 02:56:15 10° ESE
ADEOS 4.4 02:50:55 10° NNE 02:56:01 54° ESE 03:01:05 10° S
Cosmos 1814 Rocket 4.1 02:56:16 27° NW 02:58:49 51° WSW 03:03:46 10° S
SJ 16-02 3.3 02:56:17 10° SSE 03:00:08 31° E 03:03:59 10° NE
CZ-3 R/B 3.2 02:41:13 10° SW 03:02:30 57° SSE 03:08:30 10° E
SL-19 R/B 4.4 02:57:28 10° SSE 03:03:11 81° ENE 03:08:45 10° NNW
FALCON 9 R/B 4.5 02:48:13 23° WNW 03:05:19 54° N 03:12:51 10° ENE
CZ-2C R/B 4.4 03:02:35 10° NNE 03:07:19 42° E 03:12:18 10° S
SKYMED 2 3.9 03:06:12 10° SSE 03:10:29 67° ENE 03:14:47 10° N
Cosmos 1812 2.7 03:10:02 10° N 03:13:52 84° E 03:17:41 10° S
Meteor 1-26 Rocket 4.3 03:08:41 10° NNW 03:14:20 55° W 03:19:48 10° S
CZ-3B R/B 0.3 03:17:29 37° SSE 03:17:29 37° SSE 03:18:41 10° ESE
Gbstr 26 Del rocket 3.2 03:14:09 16° NNW 03:17:16 65° NE 03:21:55 10° SE
Cosmos 2369 Rocket 3.4 03:17:39 19° WNW 03:18:14 19° WNW 03:22:06 10° NNW
CZ-4B R/B 4.5 03:15:36 10° N 03:19:47 41° WNW 03:23:56 10° SW
Cosmos 1503 Rocket 4.4 03:18:02 10° SW 03:22:54 39° WNW 03:27:51 10° N
SL-4 R/B 3.6 03:19:58 10° S 03:23:01 31° SE 03:26:11 10° ENE
Meteor PRIRODA 4.2 03:19:39 10° NNE 03:23:14 61° E 03:26:49 10° S
APEX 3.7 03:22:40 20° WNW 03:24:25 33° WSW 03:27:55 10° S
Cosmos 1867 3.7 03:20:18 11° NW 03:25:22 56° WSW 03:30:38 10° S
Cosmos 2208 Rocket 4.5 03:20:38 10° NNW 03:25:40 41° W 03:30:38 10° S
CZ-4C R/B 3.8 03:25:14 10° SSE 03:28:18 46° ENE 03:31:19 10° N
DELTA 4 R/B 3.8 03:28:15 10° SSW 03:30:28 23° SE 03:35:12 10° E
Okean 3 Rocket 4.2 03:26:25 10° SSW 03:30:32 35° W 03:34:43 10° NNW
Cosmos 921 Rocket 3.1 03:27:55 10° NNW 03:32:18 59° W 03:36:43 10° S
Cosmos 1777 Rocket 3.9 03:28:08 10° SSW 03:33:19 81° WNW 03:38:33 10° NNE
SJ-7 4.4 03:30:09 10° N 03:34:16 68° WNW 03:38:19 10° SSW
Meteor 1-31 Rocket 3.8 03:31:28 10° NNW 03:34:37 24° WNW 03:37:47 10° SW
Cosmos 1862 4.4 03:32:24 10° SW 03:35:35 23° W 03:38:46 10° NNW
Hubble Space Telescope 1.3 03:32:48 13° W 03:36:16 49° SSW 03:40:14 10° SE
Cosmos 1782 4.1 03:35:08 10° NW 03:38:05 21° W 03:41:03 10° SW
CZ-2C R/B 2.9 03:37:20 10° S 03:42:44 53° W 03:48:03 10° NNW
Fermi 3.7 03:38:53 11° W 03:42:44 77° N 03:46:47 10° E
Cosmos 1151 Rocket 3.5 03:42:08 10° NNW 03:46:14 40° W 03:50:18 10° SSW
ATLAS 3B R/B 2.7 03:48:18 10° SW 03:54:34 56° WNW 04:01:03 10° NNE
NOAA 6 4.5 03:50:20 10° NNE 03:55:26 69° ESE 04:00:31 10° S
